Location: Makakahi
(40.6833°S, 175.6000°E)
Time: 00:26:39
(UTC+00:00)

FENGYUN 1C DEB - Pass Details

Date: 14 December 2024
Orbit: 841 x 907 km, 98.9° (Epoch: 11 January)

Event Time Altitude Azimuth Distance (km) Brightness Sun altitude
Rises 10:57:10 0° 185° (S) 3,489 ? -23.7°
Reaches altitude 10° 11:00:46 10° 208° (SSW) 2,528 ? -23.9°
Maximum altitude 11:03:32 14° 238° (WSW) 2,229 ? -24.1°
Drops below altitude 10° 11:06:18 10° 268° (W) 2,497 ? -24.2°
Sets 11:09:49 0° 292° (WNW) 3,414 ? -24.4°
